Tracking 20942 objects as of 10-Jul-2020
HD Live streaming from Space Station
objects crossing your sky now

COSMOS 342

Track COSMOS 342 now!
10-day predictions
COSMOS 342 is classified as:


NORAD ID: 4389
Int'l Code: 1970-036G
Perigee: 1,317.6 km
Apogee: 1,474.6 km
Inclination: 74.0 °
Period: 113.5 minutes
Semi major axis: 7767 km
RCS: 0.743 m2 (medium)
Launch date: April 25, 1970
Source: Commonwealth of Independent States (former USSR) (CIS)
Launch site: PLESETSK MISSILE AND SPACE COMPLEX (PKMTR)
aabbcc
Your satellite tracking list
Your tracking list is empty




NASA's NSSDC Master Catalog

Two Line Element Set (TLE):
1  4389U 70036G   20192.16616740  .00000003  00000-0  99763-4 0  9996
2  4389  74.0293 112.0647 0101091  24.2682  81.7024 12.68285474324680
Source of the keplerian elements: AFSPC